Location: Deurze
(52.9838°N, 6.6090°E)
Time: 19:21:27
(UTC+00:00)

Cosmos 2227 Rocket - Pass Details

Date: 11 March 2026
Orbit: 836 x 845 km, 71.0° (Epoch: 20 April)

Event Time Altitude Azimuth Distance (km) Brightness Sun altitude
Rises 21:02:18 0° 328° (NNW) 3,416 6.4 -30.4°
Reaches altitude 10° 21:04:59 10° 337° (NNW) 2,478 5.4 -30.7°
Enters shadow 21:09:18 33° 24° (NNE) 1,384 3.4 -31.2°
